Location: Cueva de Ratón
(10.1013°N, 67.6606°W)
Time: 17:58:35
(UTC+00:00)

NOSS 3-4 (C) - Visible Passes

Search period start: 28 May 2024 00:00
Search period end: 07 June 2024 00:00
Orbit: 806 x 1406 km, 63.4° (Epoch: 23 May)

Date Brightness Start Highest point End Pass type
(mag) Time Alt. Az. Time Alt. Az. Time Alt. Az.
31 May 6.5 03:52:04 10° N 03:52:15 11° N 03:52:15 11° N visible
01 Jun 6.4 03:08:24 10° NNE 03:08:34 11° NNE 03:08:34 11° NNE visible
03 Jun 6.3 03:27:48 10° N 03:28:46 14° N 03:28:46 14° N visible
04 Jun 6.1 02:43:42 10° N 02:45:14 16° NNE 02:45:14 16° NNE visible
05 Jun 6.1 02:00:28 10° NNE 02:01:45 13° NNE 02:01:45 13° NNE visible
05 Jun 6.4 03:48:37 10° NNW 03:49:11 13° NNW 03:49:11 13° NNW visible
06 Jun 6.0 03:03:42 10° NNW 03:05:45 20° NNW 03:05:45 20° NNW visible
